Location: Chuathbaluk
(61.5726°N, 159.2454°W)
Time: 16:06:20
(UTC+00:00)

Transit 2A Rocket - All Passes

Search period start: 24 November 2020 00:00
Search period end: 04 December 2020 00:00
Orbit: 588 x 915 km, 66.7° (Epoch: 24 November)

Date Brightness Start Highest point End Pass type
(mag) Time Alt. Az. Time Alt. Az. Time Alt. Az.
24 Nov - 13:39:14 10° S 13:44:20 31° ESE 13:49:09 10° ENE visible
24 Nov - 15:20:41 10° SW 15:26:33 84° SE 15:31:55 10° NE visible
24 Nov - 17:03:57 10° W 17:09:32 54° NNW 17:14:39 10° ENE visible
24 Nov - 18:47:30 10° WNW 18:52:53 52° N 18:57:46 10° E daylight
24 Nov - 20:30:34 10° NW 20:35:55 89° SW 20:40:44 10° SE daylight
24 Nov - 22:13:34 10° WNW 22:18:00 30° WSW 22:22:05 10° S daylight
25 Nov - 12:57:33 10° SSE 13:02:01 23° ESE 13:06:17 10° ENE visible
25 Nov - 14:38:11 10° SW 14:43:57 66° SE 14:49:18 10° NE visible
25 Nov - 16:21:05 10° WSW 16:26:46 61° NNW 16:31:58 10° ENE visible
25 Nov - 18:04:41 10° WNW 18:10:05 49° N 18:14:59 10° E visible
25 Nov - 19:47:53 10° WNW 19:53:16 74° NNE 19:58:07 10° ESE daylight
25 Nov - 21:30:48 10° WNW 21:35:39 42° SW 21:40:05 10° SSE daylight
25 Nov - 23:15:34 10° W 23:16:52 11° WSW 23:18:09 10° WSW daylight
26 Nov - 12:16:18 10° SSE 12:19:47 16° ESE 12:23:09 10° ENE visible
26 Nov - 13:55:49 10° SSW 14:01:27 51° SE 14:06:40 10° ENE visible
26 Nov - 15:38:17 10° WSW 15:44:03 71° NNW 15:49:19 10° ENE visible
26 Nov - 17:21:50 10° WNW 17:27:16 49° N 17:32:13 10° ENE visible
26 Nov - 19:05:11 10° WNW 19:10:33 62° NNE 19:15:24 10° ESE daylight
26 Nov - 20:48:05 10° NW 20:53:13 57° SW 20:57:51 10° SSE daylight
26 Nov - 22:31:40 10° WNW 22:34:45 17° WSW 22:37:43 10° SSW daylight
27 Nov - 11:36:03 10° ESE 11:37:38 11° ESE 11:39:13 10° E visible
27 Nov - 13:13:39 10° S 13:19:00 38° SE 13:23:59 10° ENE visible
27 Nov - 14:55:33 10° WSW 15:01:21 85° NW 15:06:42 10° ENE visible
27 Nov - 16:38:58 10° W 16:44:27 51° N 16:49:28 10° ENE visible
27 Nov - 18:22:27 10° WNW 18:27:47 55° NNE 18:32:38 10° E visible
27 Nov - 20:05:25 10° NW 20:10:41 76° SW 20:15:27 10° SE daylight
27 Nov - 21:48:34 10° WNW 21:52:34 24° WSW 21:56:18 10° S daylight
28 Nov - 12:31:46 10° S 12:36:38 28° ESE 12:41:13 10° ENE visible
28 Nov - 14:12:56 10° SW 14:18:45 78° SE 14:24:05 10° NE visible
28 Nov - 15:56:05 10° W 16:01:40 56° NNW 16:06:46 10° ENE visible
28 Nov - 17:39:39 10° WNW 17:45:00 50° N 17:49:51 10° E visible
28 Nov - 19:22:45 10° WNW 19:28:05 85° NNE 19:32:53 10° ESE daylight
28 Nov - 21:05:43 10° WNW 21:10:16 33° WSW 21:14:28 10° S daylight
29 Nov - 11:50:12 10° SSE 11:54:20 20° ESE 11:58:18 10° ENE visible
29 Nov - 13:30:28 10° SSW 13:36:11 60° SE 13:41:27 10° NE visible
29 Nov - 15:13:14 10° WSW 15:18:54 64° NNW 15:24:05 10° ENE visible
29 Nov - 16:56:50 10° WNW 17:02:11 49° N 17:07:03 10° ENE visible
29 Nov - 18:40:04 10° WNW 18:45:24 69° NNE 18:50:13 10° ESE daylight
29 Nov - 20:22:58 10° WNW 20:27:53 46° SW 20:32:22 10° SSE daylight
29 Nov - 22:07:09 10° W 22:09:13 13° WSW 22:11:15 10° SW daylight
30 Nov - 11:09:10 10° SE 11:12:08 14° ESE 11:15:00 10° ENE visible
30 Nov - 12:48:10 10° SSW 12:53:41 45° SE 12:58:48 10° ENE visible
30 Nov - 14:30:27 10° WSW 14:36:12 76° NNW 14:41:27 10° ENE visible
30 Nov - 16:13:58 10° W 16:19:22 49° N 16:24:18 10° ENE visible
30 Nov - 17:57:21 10° WNW 18:02:41 59° NNE 18:07:29 10° E visible
30 Nov - 19:40:17 10° NW 19:45:25 64° SW 19:50:04 10° SE daylight
30 Nov - 21:23:40 10° WNW 21:27:05 19° WSW 21:30:19 10° SSW daylight
01 Dec - 12:06:06 10° S 12:11:16 34° ESE 12:16:05 10° ENE visible
01 Dec - 13:47:45 10° SW 13:53:33 89° SE 13:58:50 10° NE visible
01 Dec - 15:31:05 10° W 15:36:34 53° NNW 15:41:34 10° ENE visible
01 Dec - 17:14:36 10° WNW 17:19:54 53° NNE 17:24:42 10° E visible
01 Dec - 18:57:37 10° NW 19:02:52 83° SSW 19:07:36 10° SE daylight
01 Dec - 20:40:40 10° WNW 20:44:51 27° WSW 20:48:44 10° S daylight
02 Dec - 11:24:18 10° S 11:28:55 25° ESE 11:33:17 10° ENE visible
02 Dec - 13:05:11 10° SW 13:10:56 71° SE 13:16:13 10° NE visible
02 Dec - 14:48:13 10° W 14:53:48 58° NNW 14:58:52 10° ENE visible
02 Dec - 16:31:48 10° WNW 16:37:06 49° N 16:41:55 10° E visible
02 Dec - 18:14:57 10° WNW 18:20:14 79° NNE 18:25:00 10° ESE visible
02 Dec - 19:57:51 10° WNW 20:02:31 37° SW 20:06:47 10° SSE daylight
03 Dec - 10:42:54 10° SSE 10:46:39 18° ESE 10:50:15 10° ENE night (unlit)
03 Dec - 12:22:46 10° SSW 12:28:24 55° SE 12:33:35 10° ENE visible
03 Dec - 14:05:23 10° WSW 14:11:03 68° NNW 14:16:13 10° ENE visible
03 Dec - 15:48:58 10° WNW 15:54:17 49° N 15:59:08 10° ENE visible
03 Dec - 17:32:14 10° WNW 17:37:32 65° NNE 17:42:19 10° ESE visible
03 Dec - 19:15:08 10° WNW 19:20:07 52° SW 19:24:37 10° SSE daylight
03 Dec - 20:58:58 10° WNW 21:01:33 14° WSW 21:04:03 10° SW daylight
